Kalispell, MT
on Saturday, October 7, 2017

Saturday
Previous Day Next Day
Daily Summary
 ActualAverageRecord
Temperature
Mean Temperature - 45 °F  
Max Temperature 59 °F 60 °F 82 °F (1979)
Min Temperature 33 °F 31 °F 16 °F (2000)
Degree Days
Heating Degree Days 19 20  
Month to date heating degree days 152 129  
Since 1 July heating degree days 484 629  
Cooling Degree Days 0 0  
Month to date cooling degree days 0 0  
Year to date cooling degree days 228 147  
Moisture
Dew Point 34 °F   
Average Humidity 61    
Maximum Humidity 92    
Minimum Humidity 30    
Precipitation
Precipitation 0.08 in 0.03 in 0.64 in (2011)
Month to date precipitation 0.18 0.21  
Year to date precipitation 12.03 13.20  
Snow
Snow 0.00 in - - ()
Month to date snowfall 0.0  
Year to date snowfall 54.5  
Since 1 July snowfall 0.0  
Snow Depth 0.00 in   
Wind
Wind Speed 10 mph   
Max Wind Speed 26 mph   
Max Gust Speed 36 mph   
Visibility 9 miles   
Events Rain   

Key: T is trace of precipitation, MM is missing value
Source: NWS Daily Summary
Time(MDT)TemperatureDew PointHumidity Pressure Visibility Wind DirectionWind SpeedGust SpeedPrecipitationEvents Conditions
12:55 AM 57.9 °F 27.0 °F 31% 29.63 in 10.0 miles SW 10.4 mph - N/A   Partly Cloudy
1:55 AM 57.9 °F 28.0 °F 32% 29.62 in 10.0 miles WSW 12.7 mph - N/A   Mostly Cloudy
2:55 AM 55.0 °F 28.9 °F 37% 29.62 in 10.0 miles SW 12.7 mph - N/A   Mostly Cloudy
3:55 AM 55.9 °F 30.0 °F 37% 29.61 in 10.0 miles WSW 16.1 mph 25.3 mph N/A   Mostly Cloudy
4:55 AM 55.0 °F 30.9 °F 40% 29.60 in 10.0 miles SW 24.2 mph 28.8 mph N/A   Overcast
5:55 AM 54.0 °F 33.1 °F 45% 29.61 in 10.0 miles SW 17.3 mph 28.8 mph N/A   Mostly Cloudy
6:55 AM 53.1 °F 33.1 °F 47% 29.61 in 10.0 miles SW 8.1 mph - N/A   Overcast
7:55 AM 51.1 °F 35.1 °F 54% 29.60 in 10.0 miles SW 12.7 mph - N/A   Mostly Cloudy
8:55 AM 48.0 °F 41.0 °F 77% 29.62 in 10.0 miles West 13.8 mph 20.7 mph 0.01 in Rain Light Rain
9:42 AM 45.0 °F 41.0 °F 86% 29.65 in 1.8 miles West 19.6 mph 29.9 mph 0.03 in Rain Rain
9:51 AM 44.6 °F 41.0 °F 87% 29.66 in 2.5 miles WSW 13.8 mph 29.9 mph 0.05 in Rain Rain
9:55 AM 45.0 °F 41.0 °F 86% 29.66 in 3.0 miles WSW 11.5 mph 18.4 mph 0.06 in Rain Light Rain
10:55 AM 46.9 °F 41.0 °F 80% 29.67 in 10.0 miles Calm Calm - 0.00 in   Overcast
11:55 AM 48.9 °F 39.9 °F 71% 29.67 in 10.0 miles ENE 8.1 mph - N/A   Mostly Cloudy
12:55 PM 46.9 °F 37.9 °F 71% 29.69 in 10.0 miles West 11.5 mph 19.6 mph 0.01 in Rain Light Rain
1:55 PM 52.0 °F 35.1 °F 53% 29.67 in 10.0 miles SW 13.8 mph 20.7 mph 0.00 in   Scattered Clouds
2:55 PM 51.1 °F 32.0 °F 48% 29.69 in 10.0 miles West 15.0 mph - N/A   Mostly Cloudy
3:55 PM 50.0 °F 34.0 °F 54% 29.70 in 10.0 miles SW 12.7 mph 24.2 mph N/A   Partly Cloudy
4:35 PM 51.1 °F 30.0 °F 44% 29.71 in 10.0 miles WNW 17.3 mph 24.2 mph N/A   Mostly Cloudy
4:55 PM 50.0 °F 30.9 °F 48% 29.72 in 10.0 miles West 10.4 mph - N/A   Mostly Cloudy
5:55 PM 48.9 °F 33.1 °F 54% 29.75 in 10.0 miles Calm Calm - N/A   Scattered Clouds
6:55 PM 46.9 °F 32.0 °F 56% 29.78 in 10.0 miles Calm Calm - N/A   Overcast
7:55 PM 41.0 °F 33.1 °F 73% 29.80 in 10.0 miles South 6.9 mph - N/A   Scattered Clouds
8:55 PM 39.0 °F 32.0 °F 76% 29.81 in 10.0 miles South 9.2 mph - N/A   Clear
9:55 PM 36.0 °F 30.9 °F 82% 29.83 in 10.0 miles SSE 8.1 mph - N/A   Clear
10:55 PM 36.0 °F 30.9 °F 82% 29.84 in 10.0 miles Calm Calm - N/A   Clear
11:55 PM 36.0 °F 33.1 °F 89% 29.85 in 10.0 miles South 4.6 mph - N/A   Partly Cloudy

Astronomy

Sunrise: 07:45 AM (MDT) Moon Rise: 08:36 PM (MDT) 10 / 7
Sunset: 07:03 PM (MDT) Moon Set: 09:49 AM (MDT) 10 / 7
Moon Phase
Oct. 07 Oct. 12 Oct. 19 Oct. 27 Nov. 04

Powered by the Weather Underground, Inc.